Weather History for Cavalier, ND

Change the Weather History Date:

Tuesday, February 5, 2013

  Actual Average (KGAF) Record (KGAF)
Temperature  
Mean Temperature 4 °F -  
Max Temperature 10 °F 17 °F 55 °F (1963)
Min Temperature -2 °F 0 °F -28 °F (1982)
Degree Days  
Heating Degree Days 61    
Moisture  
Dew Point -3 °F    
Average Humidity 78    
Maximum Humidity 92    
Minimum Humidity 66    
Precipitation  
Precipitation 0.00 in - - ()
Sea Level Pressure  
Sea Level Pressure 29.95 in    
Wind  
Wind Speed 12 mph (NNW)    
Max Wind Speed 17 mph    
Max Gust Speed 21 mph    
Visibility 9 miles    
Events Rain , Snow    
Averages and records for this station are not official NWS values.
T = Trace of Precipitation, MM = Missing Value Source: NWS Daily Summary

Daily Weather History Graph

Daily Weather History Graph

Search for Another Location

Airport:

Trip Planner

Search our weather history database for the weather conditions in past years. The results will help you decide how hot, cold, wet, or windy it might be!

Date:

Astronomy

Feb. 05, 2013 Rise Set
Actual Time 7:54 AM CST 5:35 PM CST
Civil Twilight 7:20 AM CST 6:09 PM CST
Nautical Twilight 6:43 AM CST 6:46 PM CST
Astronomical Twilight 6:06 AM CST 7:23 PM CST
Moon 3:47 AM CST (2/5) 12:44 PM CST (2/5)
Length of Visible Light 10h 48m
Length of Day
9h 41m
Waning Crescent, 26% of the Moon is Illuminated
Feb 5
Waning Crescent
Feb 10
New
Feb 17
First Quarter
Feb 25
Full
Mar 4
Last Quarter

Hourly Weather History & Observations

Time (CST) Temp. Windchill Dew Point Humidity Pressure Visibility Wind Dir Wind Speed Gust Speed Precip Events Conditions
12:15 AM 10.4 °F -6.6 °F 8.6 °F 92% 29.64 in 6.0 mi NNW 16.1 mph - N/A Rain Light Freezing Rain
12:35 AM 10.4 °F -7.2 °F 8.6 °F 92% 29.64 in 9.0 mi NNW 17.3 mph 20.7 mph N/A Rain Light Freezing Rain
12:55 AM 10.4 °F -6.6 °F 8.6 °F 92% 29.65 in 7.0 mi North 16.1 mph 20.7 mph N/A Rain Light Freezing Rain
1:15 AM 10.4 °F -6.0 °F 6.8 °F 85% 29.66 in 7.0 mi North 15.0 mph 20.7 mph N/A Rain Light Freezing Rain
1:35 AM 10.4 °F -6.6 °F 6.8 °F 85% 29.68 in 7.0 mi North 16.1 mph 19.6 mph N/A Rain Light Freezing Rain
1:55 AM 8.6 °F -7.7 °F 5.0 °F 85% 29.70 in 10.0 mi North 13.8 mph - N/A Rain Light Freezing Rain
2:15 AM 8.6 °F -7.0 °F 5.0 °F 85% 29.72 in 5.0 mi NNW 12.7 mph - N/A Rain Light Freezing Rain
2:35 AM 8.6 °F -7.7 °F 5.0 °F 85% 29.73 in 8.0 mi NNW 13.8 mph - N/A Rain Light Freezing Rain
2:55 AM 8.6 °F -8.9 °F 5.0 °F 85% 29.76 in 7.0 mi NNW 16.1 mph - N/A Rain Light Freezing Rain
3:15 AM 6.8 °F -10.0 °F 3.2 °F 85% 29.77 in 5.0 mi NNW 13.8 mph 18.4 mph N/A Rain Light Freezing Rain
3:35 AM 6.8 °F -10.0 °F 3.2 °F 85% 29.78 in 5.0 mi NNW 13.8 mph - N/A Rain Light Freezing Rain
3:55 AM 5.0 °F -12.3 °F 1.4 °F 85% 29.80 in 6.0 mi North 13.8 mph - N/A Rain Light Freezing Rain
4:15 AM 5.0 °F -13.0 °F -0.4 °F 78% 29.81 in 8.0 mi North 15.0 mph - N/A Rain Light Freezing Rain
4:35 AM 3.2 °F -16.5 °F -0.4 °F 85% 29.83 in 5.0 mi North 17.3 mph - N/A Rain Light Freezing Rain
4:55 AM 1.4 °F -18.2 °F -0.4 °F 92% 29.84 in 5.0 mi NNW 16.1 mph 20.7 mph N/A Rain Light Freezing Rain
5:15 AM 1.4 °F -18.2 °F -2.2 °F 85% 29.86 in 5.0 mi NNW 16.1 mph - N/A Rain Light Freezing Rain
5:35 AM -0.4 °F -20.5 °F -2.2 °F 92% 29.87 in 5.0 mi NNW 16.1 mph - N/A Rain Light Freezing Rain
5:55 AM -0.4 °F -19.9 °F -4.0 °F 85% 29.88 in 5.0 mi NNW 15.0 mph - N/A Rain Light Freezing Rain
6:15 AM -0.4 °F -19.2 °F -4.0 °F 85% 29.89 in 6.0 mi NNW 13.8 mph - N/A Rain Light Freezing Rain
6:35 AM -0.4 °F -19.9 °F -4.0 °F 85% 29.91 in 8.0 mi NNW 15.0 mph - N/A Rain Light Freezing Rain
6:55 AM -0.4 °F -19.9 °F -4.0 °F 85% 29.92 in 10.0 mi NNW 15.0 mph - N/A Rain Light Freezing Rain
7:15 AM -0.4 °F -19.2 °F -4.0 °F 85% 29.93 in 10.0 mi NNW 13.8 mph - N/A Rain Light Freezing Rain
7:35 AM -0.4 °F -18.4 °F -5.8 °F 78% 29.95 in 10.0 mi NNW 12.7 mph - N/A Rain Light Freezing Rain
7:55 AM -0.4 °F -17.6 °F -7.6 °F 72% 29.96 in 10.0 mi NNW 11.5 mph - N/A Rain Light Freezing Rain
8:15 AM -2.2 °F -21.5 °F -7.6 °F 78% 29.97 in 10.0 mi NNW 13.8 mph - N/A Rain Light Freezing Rain
8:35 AM -2.2 °F -20.7 °F -7.6 °F 78% 29.98 in 2.5 mi NNW 12.7 mph - N/A Rain Light Freezing Rain
8:55 AM -2.2 °F -21.5 °F -7.6 °F 78% 29.99 in 10.0 mi North 13.8 mph - N/A Rain Light Freezing Rain
9:15 AM -2.2 °F -22.2 °F -7.6 °F 78% 30.00 in 10.0 mi North 15.0 mph - N/A Rain Light Freezing Rain
9:35 AM -0.4 °F -19.2 °F -7.6 °F 72% 30.01 in 10.0 mi North 13.8 mph 17.3 mph N/A Rain Light Freezing Rain
9:55 AM -0.4 °F -17.6 °F -7.6 °F 72% 30.02 in 9.0 mi NNW 11.5 mph - N/A Rain Light Freezing Rain
10:15 AM -0.4 °F -17.6 °F -5.8 °F 78% 30.03 in 7.0 mi North 11.5 mph - N/A Rain Light Freezing Rain
10:35 AM -0.4 °F -18.4 °F -5.8 °F 78% 30.04 in 8.0 mi NNW 12.7 mph - N/A Rain Light Freezing Rain
10:55 AM -0.4 °F -19.2 °F -5.8 °F 78% 30.05 in 10.0 mi NNW 13.8 mph - N/A Rain Light Freezing Rain
11:15 AM -0.4 °F -16.7 °F -5.8 °F 78% 30.06 in 10.0 mi NNW 10.4 mph - N/A Rain Light Freezing Rain
11:35 AM 1.4 °F -14.5 °F -4.0 °F 78% 30.06 in 10.0 mi NNW 10.4 mph - N/A   Partly Cloudy
11:55 AM 1.4 °F -13.5 °F -4.0 °F 78% 30.06 in 10.0 mi NNW 9.2 mph - N/A   Partly Cloudy
12:15 PM 1.4 °F -16.1 °F -5.8 °F 72% 30.06 in 10.0 mi NNW 12.7 mph - N/A   Scattered Clouds
12:35 PM 1.4 °F -15.3 °F -5.8 °F 72% 30.06 in 10.0 mi NNW 11.5 mph - N/A   Scattered Clouds
12:55 PM 1.4 °F -14.5 °F -5.8 °F 72% 30.05 in 10.0 mi NNW 10.4 mph - N/A   Scattered Clouds
1:15 PM 1.4 °F -12.5 °F -5.8 °F 72% 30.05 in 10.0 mi NNW 8.1 mph - N/A   Partly Cloudy
1:35 PM 1.4 °F -12.5 °F -5.8 °F 72% 30.05 in 10.0 mi NNW 8.1 mph - N/A   Clear
1:55 PM 1.4 °F -11.3 °F -5.8 °F 72% 30.05 in 10.0 mi NNW 6.9 mph - N/A   Scattered Clouds
2:15 PM 1.4 °F -12.5 °F -4.0 °F 78% 30.06 in 10.0 mi NNW 8.1 mph - N/A   Overcast
2:35 PM 1.4 °F -11.3 °F -4.0 °F 78% 30.05 in 10.0 mi NNW 6.9 mph - N/A   Overcast
2:55 PM 3.2 °F -4.2 °F -4.0 °F 72% 30.05 in 10.0 mi WNW 3.5 mph - N/A   Overcast
3:15 PM 3.2 °F -7.8 °F -5.8 °F 66% 30.06 in 10.0 mi North 5.8 mph - N/A   Overcast
3:35 PM 3.2 °F -7.8 °F -5.8 °F 66% 30.07 in 10.0 mi NNW 5.8 mph - N/A   Overcast
3:55 PM 3.2 °F -4.2 °F -4.0 °F 72% 30.06 in 10.0 mi NW 3.5 mph - N/A   Overcast
4:15 PM 3.2 °F -4.2 °F -5.8 °F 66% 30.06 in 10.0 mi NNE 3.5 mph - N/A   Overcast
4:35 PM 3.2 °F - -5.8 °F 66% 30.05 in 10.0 mi Calm Calm - N/A   Scattered Clouds
4:55 PM 1.4 °F -6.2 °F -5.8 °F 72% 30.05 in 9.0 mi NE 3.5 mph - N/A Snow Light Snow
5:15 PM 1.4 °F - -5.8 °F 72% 30.04 in 10.0 mi Calm Calm - N/A   Mostly Cloudy
5:35 PM 3.2 °F - -4.0 °F 72% 30.05 in 10.0 mi Calm Calm - N/A   Overcast
5:55 PM 3.2 °F - -4.0 °F 72% 30.04 in 10.0 mi Calm Calm - N/A   Overcast
6:15 PM 3.2 °F - -4.0 °F 72% 30.04 in 10.0 mi Calm Calm - N/A   Overcast
6:35 PM 3.2 °F -4.2 °F -4.0 °F 72% 30.04 in 10.0 mi SE 3.5 mph - N/A   Overcast
6:55 PM 3.2 °F -6.2 °F -4.0 °F 72% 30.03 in 10.0 mi ESE 4.6 mph - N/A   Overcast
7:15 PM 3.2 °F -4.2 °F -4.0 °F 72% 30.03 in 10.0 mi ESE 3.5 mph - N/A Snow Light Snow
7:35 PM 3.2 °F -7.8 °F -4.0 °F 72% 30.02 in 10.0 mi South 5.8 mph - N/A   Overcast
7:55 PM 3.2 °F -9.1 °F -4.0 °F 72% 30.02 in 10.0 mi South 6.9 mph - N/A   Overcast
8:15 PM 3.2 °F -10.3 °F -2.2 °F 78% 30.02 in 10.0 mi South 8.1 mph - N/A   Overcast
8:35 PM 5.0 °F -10.8 °F -2.2 °F 72% 30.02 in 10.0 mi South 11.5 mph - N/A   Overcast
9:15 PM 5.0 °F -9.1 °F -2.2 °F 72% 30.02 in 10.0 mi South 9.2 mph - N/A   Mostly Cloudy
9:35 PM 5.0 °F -8.1 °F -2.2 °F 72% 30.01 in 10.0 mi South 8.1 mph - N/A   Overcast
9:55 PM 5.0 °F -8.1 °F -2.2 °F 72% 30.01 in 10.0 mi South 8.1 mph - N/A Snow Light Snow
10:15 PM 5.0 °F -6.9 °F -0.4 °F 78% 30.00 in 6.0 mi South 6.9 mph - N/A Snow Light Snow
10:35 PM 5.0 °F -8.1 °F -0.4 °F 78% 29.99 in 5.0 mi South 8.1 mph - N/A Snow Light Snow
10:55 PM 5.0 °F -9.1 °F -0.4 °F 78% 29.99 in 4.0 mi South 9.2 mph - N/A   Haze
11:15 PM 6.8 °F -7.8 °F -0.4 °F 72% 29.99 in 10.0 mi South 10.4 mph - N/A   Overcast
11:35 PM 5.0 °F -11.6 °F -0.4 °F 78% 29.98 in 10.0 mi South 12.7 mph - N/A   Overcast
11:55 PM 6.8 °F -5.9 °F -0.4 °F 72% 29.98 in 9.0 mi SSE 8.1 mph - N/A   Overcast